RSC6MF GCXO-GCGM

Flight info

Callsign RSC6MF
Flight time 0h 15m
Altitude 11000
Route YEQAY1J YEQAY DCT
Aircraft AT76/M-SDFGIRY/S

Departure

Time 2026-05-07 18:14
Airport Tenerife Norte-Ciudad de La Laguna Airport (GCXO)

Arrival

Time 2026-05-07 18:29
Airport La Gomera Airport (GCGM)
Time Latitude Longitude Altitude Speed Heading
2026-05-07 18:05 28.48677 -16.34659 2082 ft 0 kts 21°
2026-05-07 18:09 28.48678 -16.34648 2082 ft 2 kts 126°
2026-05-07 18:10 28.48611 -16.34686 2082 ft 11 kts 206°
2026-05-07 18:10 28.48537 -16.34670 2082 ft 10 kts 141°
2026-05-07 18:10 28.48509 -16.34569 2082 ft 19 kts 110°
2026-05-07 18:10 28.48463 -16.34428 2082 ft 19 kts 109°
2026-05-07 18:11 28.48420 -16.34282 2082 ft 19 kts 108°
2026-05-07 18:11 28.48392 -16.34186 2083 ft 19 kts 108°
2026-05-07 18:11 28.48333 -16.34002 2082 ft 19 kts 110°
2026-05-07 18:11 28.48283 -16.33854 2083 ft 26 kts 111°
2026-05-07 18:12 28.48207 -16.33622 2082 ft 30 kts 109°
2026-05-07 18:12 28.48142 -16.33561 2082 ft 8 kts 233°
2026-05-07 18:12 28.48140 -16.33661 2082 ft 15 kts 247°
2026-05-07 18:12 28.48125 -16.33727 2081 ft 3 kts 291°
2026-05-07 18:13 28.48125 -16.33728 2082 ft 0 kts 289°
2026-05-07 18:13 28.48160 -16.33831 2082 ft 41 kts 291°
2026-05-07 18:13 28.48327 -16.34331 2084 ft 95 kts 293°
2026-05-07 18:13 28.48596 -16.35160 2311 ft 119 kts 289°
2026-05-07 18:14 28.48879 -16.36141 2649 ft 141 kts 289°
2026-05-07 18:14 28.49193 -16.37290 2790 ft 166 kts 289°
2026-05-07 18:14 28.49630 -16.38565 3134 ft 176 kts 292°
2026-05-07 18:14 28.50110 -16.39830 3648 ft 175 kts 292°
2026-05-07 18:15 28.50593 -16.41118 4239 ft 173 kts 290°
2026-05-07 18:15 28.51024 -16.42396 4840 ft 171 kts 282°
2026-05-07 18:15 28.51006 -16.43725 5344 ft 171 kts 254°
2026-05-07 18:15 28.50508 -16.44942 5783 ft 174 kts 245°
2026-05-07 18:16 28.49935 -16.46179 6307 ft 175 kts 245°
2026-05-07 18:16 28.49341 -16.47376 6759 ft 177 kts 243°
2026-05-07 18:16 28.48685 -16.48585 7250 ft 178 kts 242°
2026-05-07 18:16 28.48005 -16.49773 7711 ft 180 kts 242°
2026-05-07 18:17 28.47309 -16.50952 8173 ft 181 kts 241°
2026-05-07 18:17 28.46606 -16.52127 8624 ft 182 kts 241°
2026-05-07 18:17 28.45882 -16.53317 9072 ft 184 kts 241°
2026-05-07 18:17 28.45157 -16.54491 9510 ft 185 kts 241°
2026-05-07 18:18 28.44421 -16.55670 9937 ft 187 kts 241°
2026-05-07 18:18 28.43664 -16.56872 10364 ft 186 kts 241°
2026-05-07 18:18 28.42903 -16.58073 10777 ft 186 kts 241°
2026-05-07 18:18 28.42123 -16.59315 10922 ft 200 kts 241°
2026-05-07 18:19 28.41323 -16.60607 10970 ft 207 kts 241°
2026-05-07 18:19 28.40457 -16.61984 11001 ft 215 kts 238°
2026-05-07 18:19 28.39527 -16.63321 11009 ft 221 kts 237°
2026-05-07 18:19 28.38550 -16.64685 11018 ft 227 kts 236°
2026-05-07 18:20 28.37534 -16.66085 11013 ft 231 kts 236°
2026-05-07 18:20 28.36504 -16.67500 11011 ft 234 kts 236°
2026-05-07 18:20 28.35460 -16.68934 11013 ft 237 kts 236°
2026-05-07 18:20 28.34403 -16.70385 11010 ft 239 kts 236°
2026-05-07 18:21 28.33340 -16.71847 11008 ft 240 kts 236°
2026-05-07 18:21 28.32271 -16.73309 11006 ft 241 kts 236°
2026-05-07 18:21 28.31204 -16.74774 11008 ft 242 kts 236°
2026-05-07 18:21 28.30126 -16.76256 11003 ft 243 kts 236°
2026-05-07 18:22 28.29053 -16.77728 11010 ft 243 kts 236°
2026-05-07 18:22 28.28335 -16.78714 11007 ft 244 kts 236°
2026-05-07 18:22 28.26888 -16.80707 10998 ft 245 kts 236°
2026-05-07 18:22 28.25808 -16.82194 11018 ft 245 kts 236°
2026-05-07 18:23 28.24723 -16.83701 11000 ft 246 kts 236°
2026-05-07 18:23 28.23630 -16.85193 11006 ft 246 kts 234°
2026-05-07 18:23 28.22494 -16.86651 10997 ft 246 kts 233°
2026-05-07 18:23 28.21341 -16.88101 10844 ft 251 kts 233°
2026-05-07 18:24 28.20148 -16.89603 10328 ft 264 kts 233°
2026-05-07 18:24 28.18937 -16.91143 9748 ft 260 kts 233°
2026-05-07 18:24 28.17737 -16.92665 9218 ft 253 kts 233°
2026-05-07 18:24 28.16582 -16.94124 8811 ft 243 kts 233°
2026-05-07 18:25 28.15461 -16.95538 8296 ft 240 kts 233°
2026-05-07 18:25 28.14343 -16.96958 7608 ft 244 kts 233°
2026-05-07 18:25 28.13230 -16.98396 6927 ft 247 kts 233°
2026-05-07 18:25 28.12158 -16.99919 6282 ft 244 kts 238°
2026-05-07 18:26 28.11221 -17.01542 5519 ft 246 kts 240°
2026-05-07 18:26 28.10338 -17.03209 4802 ft 248 kts 241°
2026-05-07 18:26 28.09483 -17.04903 4073 ft 249 kts 242°
2026-05-07 18:26 28.08636 -17.06621 3351 ft 250 kts 242°
2026-05-07 18:27 28.07811 -17.08330 2627 ft 250 kts 242°
2026-05-07 18:27 28.07016 -17.10105 1883 ft 250 kts 244°
2026-05-07 18:27 28.06258 -17.11829 1404 ft 240 kts 241°
2026-05-07 18:27 28.05694 -17.12888 1243 ft 228 kts 238°
2026-05-07 18:28 28.04609 -17.14789 1083 ft 202 kts 237°
2026-05-07 18:28 28.03863 -17.16066 1033 ft 184 kts 236°
2026-05-07 18:28 28.03285 -17.17234 1014 ft 157 kts 243°
2026-05-07 18:28 28.03046 -17.18287 981 ft 126 kts 275°
2026-05-07 18:29 28.03230 -17.19224 942 ft 121 kts 279°
2026-05-07 18:29 28.03146 -17.20107 847 ft 113 kts 262°
2026-05-07 18:29 28.03027 -17.21004 722 ft 115 kts 260°
2026-05-07 18:29 28.02948 -17.21575 721 ft 46 kts 260°
2026-05-07 18:30 28.02918 -17.21802 718 ft 40 kts 261°
2026-05-07 18:30 28.02878 -17.22101 722 ft 19 kts 265°
2026-05-07 18:30 28.02882 -17.22193 720 ft 7 kts 234°
2026-05-07 18:30 28.02872 -17.22195 718 ft 1 kts 155°
2026-05-07 18:31 28.02877 -17.22109 721 ft 16 kts 81°
2026-05-07 18:31 28.02887 -17.22030 720 ft 15 kts 82°
2026-05-07 18:31 28.02902 -17.21920 718 ft 14 kts 81°
2026-05-07 18:31 28.02922 -17.21777 720 ft 13 kts 81°
2026-05-07 18:32 28.02932 -17.21708 717 ft 13 kts 81°
2026-05-07 18:32 28.02948 -17.21590 720 ft 17 kts 81°
2026-05-07 18:32 28.02972 -17.21418 718 ft 26 kts 81°
2026-05-07 18:32 28.02996 -17.21246 720 ft 19 kts 80°
2026-05-07 18:33 28.03019 -17.21122 717 ft 3 kts 38°
2026-05-07 18:33 28.03056 -17.21123 717 ft 8 kts 344°
2026-05-07 18:33 28.03074 -17.21140 721 ft 3 kts 277°
2026-05-07 18:33 28.03070 -17.21207 717 ft 7 kts 283°
2026-05-07 18:34 28.03105 -17.21241 717 ft 4 kts 321°
2026-05-07 18:34 28.03106 -17.21243 717 ft 0 kts 321°